Regional Weather Roundup
Issued by NWS

Home | Current Version | Previous Version | Graphics & Text | Print | Product List | Glossary On
Versions: 1 2 3 4 5 6 7 8 9 10 11 12 13 14 15 16 17 18 19 20 21 22 23 24 25 26 27 28 29 30 31 32 33 34 35 36 37 38 39 40 41 42 43 44 45 46 47 48 49 50
000
ASUS45 KABQ 022310
RWRNM
NEW MEXICO REGIONAL WEATHER ROUNDUP
NATIONAL WEATHER SERVICE ALBUQUERQUE NM
500 PM MDT WED SEP 02 2015

NOTE: "FAIR" MEANS FEW OR NO CLOUDS BELOW 12,000 FEET AGL WITH NO
       SIGNIFICANT WEATHER OR OBSTRUCTIONS TO VISION.

      THIS PRODUCT IS RELEASED AS TWO VERSIONS.  ONE VERSION NEAR
      THE TOP OF THE HOUR CONTAINING PRELIMINARY DATA FROM ALBUQUERQUE
      AND OTHER STATIONS.  A FINAL VERSION WITH ADDITIONAL DATA IS
      ISSUED ABOUT 10 MINUTES AFTER THE HOUR.

NMZ501-503-504-510>518-030000-
NORTHWEST PLATEAU/NORTHCENTRAL MOUNTAINS

CITY           SKY/WX    TMP DP  RH WIND       PRES   REMARKS
FARMINGTON     MOSUNNY   77  49  37 SW12      30.11F
LOS ALAMOS     PTSUNNY   77  41  27 NW9       30.24F
SANTA FE       PTSUNNY   83  41  22 VRB3      30.15F
TAOS           PTSUNNY   81  41  24 W16G24    30.22F
ANGEL FIRE     FAIR      74  42  32 W15G21    30.30F

$$
NMZ402-403-502-505>509-030000-
WESTCENTRAL MOUNTAINS/SOUTHWEST MOUNTAINS

CITY           SKY/WX    TMP DP  RH WIND       PRES   REMARKS
GALLUP         CLOUDY    80  40  23 SW15      30.19F
GRANTS         CLOUDY    61  55  82 W13G20    30.27R
SILVER CITY      N/A     73  57  56 NW12      30.15S

$$
NMZ407-409-411-412-030000-
SOUTHERN DESERTS

CITY           SKY/WX    TMP DP  RH WIND       PRES   REMARKS
LORDSBURG      FAIR      79  50  36 W15G21    30.08R
DEMING         CLOUDY    88  47  24 W13G22    30.02F
LAS CRUCES     PTSUNNY   91  35  13 W7        30.03F
HOLLOMAN AFB   PTSUNNY   95  40  14 VRB2      29.96F
ALAMOGORDO     PTSUNNY   93  41  16 NW7       29.99F
T OR C         PTSUNNY   89  45  21 NW7       30.04F

$$
NMZ519>523-030000-
CENTRAL VALLEYS/CENTRAL HIGHLANDS

CITY           SKY/WX    TMP DP  RH WIND       PRES   REMARKS
ALBUQUERQUE    PTSUNNY   87  45  23 W10       30.10S
DOUBLE EAGLE   PTSUNNY   84  45  24 SW8       30.14S
MORIARTY ARPT  FAIR      87  36  16 W9        30.16S
CLINES CORNERS PTSUNNY   79  42  26 W14       30.21F
BELEN          LGT RAIN  69  59  71 W23G30    30.14R
SOCORRO        FAIR      85  43  22 W20       30.06F

$$
NMZ524>526-539-540-030000-
SOUTHCENTRAL MOUNTAINS

CITY           SKY/WX    TMP DP  RH WIND       PRES   REMARKS
RUIDOSO        PTSUNNY   81  45  28 SE13G18   30.23F

$$
NMZ527>531-030000-
NORTHEAST HIGHLANDS/NORTHEAST PLAINS

CITY           SKY/WX    TMP DP  RH WIND       PRES   REMARKS
LAS VEGAS      PTSUNNY   76  52  43 CALM      30.18F
RATON          PTSUNNY   74  47  38 N16G29    30.13S
CLAYTON        CLOUDY    90  50  25 S12       30.01F

$$
NMZ532>537-030000-
EASTCENTRAL PLAINS

CITY           SKY/WX    TMP DP  RH WIND       PRES   REMARKS
TUCUMCARI      MOSUNNY   94  50  22 SW12      29.95F
CANNON AFB     PTSUNNY   93  47  20 SW16      30.00F
CLOVIS AIRPORT PTSUNNY   91  52  25 S21G30    30.03S

$$
NMZ028-029-538-030000-
SOUTHEAST PLAINS

CITY           SKY/WX    TMP DP  RH WIND       PRES   REMARKS
ROSWELL        MOSUNNY   96  41  15 S18G24    29.97F
ARTESIA        MOSUNNY   95  46  18 S16G25    29.98S
CARLSBAD       MOSUNNY   97  45  16 SE14      29.95F
HOBBS          SUNNY     90  50  25 SE9G20    30.03F


$$



USA.gov is the U.S. government's official web portal to all federal, state and local government web resources and services.